Minneapolis, MN

3:51 AM CST on February 11, 2016 (GMT -0600)
Minneapolis-Saint Paul International

Weather History for KMSP - May, 2013

Change the Weather History Date:

Thursday, May 2, 2013

  Actual Average Record
Temperature  
Mean Temperature 42 °F 55 °F  
Max Temperature 48 °F 65 °F 91 °F (1959)
Min Temperature 35 °F 44 °F 24 °F (1961)
Degree Days  
Heating Degree Days 23 11  
Month to date heating degree days 42 22  
Since 1 July heating degree days 7458 7340  
Cooling Degree Days 0 0  
Month to date cooling degree days 0 0  
Year to date cooling degree days 3 5  
Moisture  
Dew Point 28 °F    
Average Humidity 67    
Maximum Humidity 92    
Minimum Humidity 42    
Precipitation  
Precipitation T in 0.11 in 1.49 in (1944)
Month to date precipitation 0.35 0.22  
Year to date precipitation 9.80 6.44  
Snow  
Snow T in 0.00 in 2.20 in (1954)
Month to date snowfall T 0.0  
Since 1 July snowfall 67.2 54.4  
Snow Depth 0.00 in    
Sea Level Pressure  
Sea Level Pressure 30.51 in    
Wind  
Wind Speed 13 mph (North)    
Max Wind Speed 20 mph    
Max Gust Speed 25 mph    
Visibility 10 miles    
Events Rain , Snow    
T = Trace of Precipitation, MM = Missing Value Source: NWS Daily Summary

Daily Weather History Graph

Daily Weather History Graph

Search for Another Location

Airport or City:

Trip Planner

Search our weather history database for the weather conditions in past years. The results will help you decide how hot, cold, wet, or windy it might be!

Date:

Astronomy

May. 02, 2013 Rise Set
Actual Time 6:00 AM CDT 8:19 PM CDT
Civil Twilight 5:28 AM CDT 8:52 PM CDT
Nautical Twilight 4:47 AM CDT 9:32 PM CDT
Astronomical Twilight 4:02 AM CDT 10:18 PM CDT
Moon 2:07 AM CDT (5/2) 12:51 PM CDT (5/2)
Length of Visible Light 15h 24m
Length of Day
14h 19m
Waning Gibbous, 47% of the Moon is Illuminated
May 2
Waning Gibbous
May 9
New
May 17
First Quarter
May 24
Full
May 31
Last Quarter

Hourly Weather History & Observations

Time (CDT) Temp. Windchill Dew Point Humidity Pressure Visibility Wind Dir Wind Speed Gust Speed Precip Events Conditions
12:45 AM 39.2 °F 30.5 °F 28.4 °F 65% 30.48 in 10.0 mi NNE 16.1 mph 25.3 mph 0.00 in Rain Light Rain
12:53 AM 39.9 °F 31.8 °F 30.0 °F 68% 30.52 in 10.0 mi North 15.0 mph 21.9 mph 0.00 in Rain Light Rain
1:53 AM 37.0 °F 28.9 °F 33.1 °F 86% 30.53 in 3.0 mi ENE 12.7 mph - 0.00 in Snow Light Snow
2:20 AM 35.6 °F 28.0 °F 33.8 °F 93% 30.50 in 4.0 mi ENE 10.4 mph - 0.00 in Snow Light Snow
2:36 AM 35.6 °F 28.6 °F 33.8 °F 93% 30.51 in 7.0 mi NE 9.2 mph - 0.00 in Snow Light Snow
2:53 AM 36.0 °F 29.0 °F 33.1 °F 89% 30.54 in 9.0 mi NNE 9.2 mph - 0.00 in Snow Light Snow
3:53 AM 36.0 °F 30.3 °F 33.1 °F 89% 30.53 in 10.0 mi North 6.9 mph - 0.00 in   Overcast
4:53 AM 37.0 °F 31.6 °F 32.0 °F 82% 30.52 in 10.0 mi NNE 6.9 mph - N/A   Overcast
5:53 AM 37.9 °F 30.0 °F 28.0 °F 68% 30.52 in 10.0 mi North 12.7 mph - N/A   Overcast
6:53 AM 37.0 °F 28.9 °F 28.9 °F 73% 30.55 in 10.0 mi NNW 12.7 mph 19.6 mph N/A   Overcast
7:53 AM 37.0 °F 28.1 °F 28.0 °F 70% 30.54 in 10.0 mi North 15.0 mph - N/A   Overcast
8:44 AM 37.4 °F 29.3 °F 28.4 °F 70% 30.53 in 10.0 mi North 12.7 mph 20.7 mph N/A   Overcast
8:53 AM 37.0 °F 29.3 °F 28.0 °F 70% 30.56 in 10.0 mi North 11.5 mph 21.9 mph N/A   Overcast
9:53 AM 37.9 °F 29.2 °F 28.0 °F 68% 30.55 in 10.0 mi NNW 15.0 mph - N/A   Overcast
10:53 AM 37.9 °F 30.0 °F 28.0 °F 68% 30.56 in 10.0 mi North 12.7 mph - N/A   Overcast
11:53 AM 39.9 °F 31.4 °F 28.0 °F 63% 30.54 in 10.0 mi North 16.1 mph 21.9 mph N/A   Overcast
12:14 PM 41.0 °F 32.8 °F 26.6 °F 57% 30.52 in 10.0 mi North 16.1 mph 21.9 mph N/A   Mostly Cloudy
12:53 PM 42.1 °F 34.2 °F 27.0 °F 55% 30.52 in 10.0 mi North 16.1 mph - N/A   Overcast
1:53 PM 44.1 °F 37.7 °F 27.0 °F 51% 30.51 in 10.0 mi NNW 12.7 mph 23.0 mph N/A   Mostly Cloudy
2:53 PM 46.0 °F 39.9 °F 27.0 °F 47% 30.49 in 10.0 mi North 13.8 mph 19.6 mph N/A   Overcast
3:53 PM 46.9 °F - 26.1 °F 44% 30.48 in 10.0 mi NNW 11.5 mph 20.7 mph N/A   Overcast
4:53 PM 46.9 °F - 25.0 °F 42% 30.46 in 10.0 mi North 17.3 mph 23.0 mph N/A   Overcast
5:53 PM 46.0 °F 38.8 °F 24.1 °F 42% 30.45 in 10.0 mi North 18.4 mph 23.0 mph N/A   Overcast
6:53 PM 45.0 °F 38.9 °F 25.0 °F 46% 30.45 in 10.0 mi North 12.7 mph - N/A   Overcast
7:53 PM 44.1 °F 38.6 °F 26.1 °F 49% 30.45 in 10.0 mi North 10.4 mph - N/A   Mostly Cloudy
8:53 PM 42.1 °F 33.9 °F 25.0 °F 51% 30.46 in 10.0 mi NNW 17.3 mph - N/A   Mostly Cloudy
9:53 PM 41.0 °F 33.5 °F 25.0 °F 53% 30.47 in 10.0 mi North 13.8 mph 20.7 mph N/A   Mostly Cloudy
10:53 PM 39.9 °F 32.5 °F 25.0 °F 55% 30.46 in 10.0 mi North 12.7 mph - N/A   Overcast
11:53 PM 39.0 °F 31.0 °F 25.0 °F 57% 30.44 in 10.0 mi North 13.8 mph - N/A   Overcast